Location: Unspecified
(38.6830°S, 0.0000°E)
Time: 03:56:18
(UTC+00:00)

Envisat - Pass Details

Date: 30 May 2019
Orbit: 764 x 766 km, 98.1° (Epoch: 19 June)

Event Time Altitude Azimuth Distance (km) Brightness Sun altitude
Exits shadow 19:03:39 26° 16° (NNE) 1,489 4.4 -26.0°
Drops below altitude 10° 19:05:55 10° 4° (N) 2,306 5.5 -26.4°
Sets 19:08:16 0° 359° (N) 3,224 6.3 -26.9°
